{"data":{"norad_id":36037,"epoch":"2026-09-19T17:41:16.917504Z","epoch_age_seconds":80201,"freshness":"FRESH","line1":"1 36037U 09059B   26262.73700136  .00000098  00000+0  33410-4 0  9998","line2":"2 36037  98.2482  84.8067 0013109 354.3567   5.7481 14.54895045895275","mean_motion":14.54895045,"eccentricity":0.0013109,"inclination_deg":98.2482,"raan_deg":84.8067,"arg_perigee_deg":354.3567,"mean_anomaly_deg":5.7481,"bstar":3.341e-5,"rev_number":89527,"period_min":98.976211717045,"perigee_km":700.41415053037,"apogee_km":718.99705626796,"semimajor_km":7087.8426033992,"source":"CELESTRAK","updated_at":"2026-09-20T09:00:47.443039Z"}}